Weather History for Corning, AR

Change the Weather History Date:

Tuesday, December 3, 2013

  Actual Average (KARG) Record (KARG)
Temperature  
Mean Temperature 50 °F -  
Max Temperature 57 °F 51 °F 98 °F (1999)
Min Temperature 42 °F 35 °F 21 °F (2000)
Degree Days  
Heating Degree Days 16    
Moisture  
Dew Point 52 °F    
Average Humidity 100    
Maximum Humidity 100    
Minimum Humidity 94    
Precipitation  
Precipitation 0.00 in - - ()
Sea Level Pressure  
Sea Level Pressure 29.71 in    
Wind  
Wind Speed 5 mph (SE)    
Max Wind Speed 10 mph    
Max Gust Speed -    
Visibility 2 miles    
Events Fog    
Averages and records for this station are not official NWS values.
T = Trace of Precipitation, MM = Missing Value Source: NWS Daily Summary

Daily Weather History Graph

Daily Weather History Graph

Search for Another Location

Airport:

Trip Planner

Search our weather history database for the weather conditions in past years. The results will help you decide how hot, cold, wet, or windy it might be!

Date:

Astronomy

Dec. 03, 2013 Rise Set
Actual Time 6:57 AM CST 4:47 PM CST
Civil Twilight 6:29 AM CST 5:15 PM CST
Nautical Twilight 5:57 AM CST 5:47 PM CST
Astronomical Twilight 5:26 AM CST 6:18 PM CST
Moon 7:27 AM CST (12/3) 5:50 PM CST (12/3)
Length of Visible Light 10h 46m
Length of Day
9h 49m
New Moon, 1% of the Moon is Illuminated
Dec 3
New Moon
Dec 9
First Quarter
Dec 17
Full
Dec 25
Last Quarter
Jan 1
New

Hourly Weather History & Observations

Time (CST) Temp. Windchill Dew Point Humidity Pressure Visibility Wind Dir Wind Speed Gust Speed Precip Events Conditions
12:15 AM 44.6 °F 40.7 °F 44.6 °F 100% 29.72 in 0.2 mi SE 6.9 mph - N/A   Mostly Cloudy
12:35 AM 44.6 °F 41.4 °F 44.6 °F 100% 29.72 in 0.2 mi SSE 5.8 mph - N/A Fog Fog
12:55 AM 42.8 °F - 42.8 °F 100% 29.73 in 0.2 mi Calm Calm - N/A Fog Fog
1:15 AM 42.8 °F - 42.8 °F 100% 29.73 in 0.2 mi Calm Calm - N/A Fog Fog
1:35 AM 44.6 °F - 44.6 °F 100% 29.73 in 0.2 mi Calm Calm - N/A Fog Fog
1:55 AM 44.6 °F 43.1 °F 44.6 °F 100% 29.74 in 0.2 mi North 3.5 mph - N/A Fog Fog
2:15 AM 44.6 °F - 44.6 °F 100% 29.74 in 0.2 mi Calm Calm - N/A Fog Fog
2:35 AM 44.6 °F 42.2 °F 44.6 °F 100% 29.74 in 0.2 mi NE 4.6 mph - N/A Fog Fog
2:55 AM 44.6 °F - 44.6 °F 100% 29.73 in 0.2 mi Calm Calm - N/A Fog Fog
3:15 AM 46.4 °F 45.2 °F 46.4 °F 100% 29.72 in 0.2 mi East 3.5 mph - N/A Fog Fog
3:35 AM 46.4 °F 43.5 °F 46.4 °F 100% 29.71 in 0.2 mi East 5.8 mph - N/A Fog Fog
3:55 AM 46.4 °F 44.3 °F 46.4 °F 100% 29.71 in 0.2 mi East 4.6 mph - N/A Fog Fog
4:15 AM 46.4 °F - 46.4 °F 100% 29.71 in 0.2 mi Calm Calm - N/A Fog Fog
4:35 AM 46.4 °F 45.2 °F 46.4 °F 100% 29.71 in 0.2 mi East 3.5 mph - N/A Fog Fog
4:55 AM 46.4 °F - 46.4 °F 100% 29.71 in 0.2 mi Calm Calm - N/A Fog Fog
5:15 AM 46.4 °F 45.2 °F 46.4 °F 100% 29.71 in 0.2 mi North 3.5 mph - N/A Fog Fog
5:35 AM 46.4 °F 45.2 °F 46.4 °F 100% 29.72 in 0.2 mi NNE 3.5 mph - N/A Fog Fog
5:55 AM 48.2 °F - 48.2 °F 100% 29.71 in 0.2 mi NE 5.8 mph - N/A Fog Fog
6:15 AM 48.2 °F - 48.2 °F 100% 29.73 in 0.2 mi ENE 3.5 mph - N/A Fog Fog
6:35 AM 48.2 °F - 48.2 °F 100% 29.73 in 0.2 mi ESE 4.6 mph - N/A Fog Fog
6:55 AM 48.2 °F - 48.2 °F 100% 29.74 in 0.2 mi SE 5.8 mph - N/A Fog Fog
7:15 AM 50.0 °F - 50.0 °F 100% 29.72 in 0.2 mi SE 6.9 mph - N/A Fog Fog
7:35 AM 50.0 °F - 50.0 °F 100% 29.72 in 0.2 mi SE 6.9 mph - N/A Fog Fog
7:55 AM 50.0 °F - 50.0 °F 100% 29.73 in 0.2 mi SE 6.9 mph - N/A Fog Fog
8:15 AM 50.0 °F - 50.0 °F 100% 29.73 in 0.8 mi SE 10.4 mph - N/A   Mostly Cloudy
8:35 AM 50.0 °F - 50.0 °F 100% 29.74 in 0.2 mi SSE 8.1 mph - N/A Fog Fog
8:55 AM 50.0 °F - 50.0 °F 100% 29.73 in 0.2 mi SSE 8.1 mph - N/A Fog Fog
9:15 AM 50.0 °F - 50.0 °F 100% 29.74 in 0.2 mi SSE 5.8 mph - N/A Fog Fog
9:35 AM 50.0 °F - 50.0 °F 100% 29.75 in 0.2 mi SSE 5.8 mph - N/A Fog Fog
9:55 AM 51.8 °F - 51.8 °F 100% 29.76 in 0.2 mi South 4.6 mph - N/A Fog Fog
10:15 AM 51.8 °F - 51.8 °F 100% 29.76 in 0.2 mi South 4.6 mph - N/A Fog Fog
10:35 AM 51.8 °F - 51.8 °F 100% 29.76 in 0.8 mi South 4.6 mph - N/A   Mist
10:55 AM 53.6 °F - 53.6 °F 100% 29.75 in 1.0 mi South 4.6 mph - N/A   Clear
11:15 AM 53.6 °F - 53.6 °F 100% 29.74 in 0.8 mi South 5.8 mph - N/A   Mist
11:35 AM 53.6 °F - 53.6 °F 100% 29.74 in 0.8 mi South 3.5 mph - N/A   Mostly Cloudy
11:55 AM 53.6 °F - 53.6 °F 100% 29.72 in 1.0 mi SE 3.5 mph - N/A   Mostly Cloudy
12:15 PM 53.6 °F - 53.6 °F 100% 29.71 in 1.2 mi SSE 3.5 mph - N/A   Clear
12:35 PM 53.6 °F - 53.6 °F 100% 29.70 in 2.0 mi SE 3.5 mph - N/A   Clear
12:55 PM 55.4 °F - 55.4 °F 100% 29.69 in 3.0 mi South 3.5 mph - N/A   Mostly Cloudy
1:15 PM 55.4 °F - 55.4 °F 100% 29.69 in 4.0 mi South 4.6 mph - N/A   Overcast
1:35 PM 55.4 °F - 55.4 °F 100% 29.69 in 5.0 mi South 3.5 mph - N/A   Mostly Cloudy
1:55 PM 55.4 °F - 55.4 °F 100% 29.69 in 5.0 mi Calm Calm - N/A   Mostly Cloudy
2:15 PM 57.2 °F - 57.2 °F 100% 29.68 in 4.0 mi ESE 6.9 mph - N/A   Overcast
2:35 PM 57.2 °F - 57.2 °F 100% 29.68 in 4.0 mi ESE 9.2 mph - N/A   Overcast
2:55 PM 57.2 °F - 57.2 °F 100% 29.68 in 5.0 mi ESE 8.1 mph - N/A   Overcast
3:15 PM 57.2 °F - 55.4 °F 94% 29.68 in 5.0 mi SE 3.5 mph - N/A   Overcast
3:35 PM 57.2 °F - 55.4 °F 94% 29.68 in 5.0 mi SE 3.5 mph - N/A   Overcast
3:55 PM 57.2 °F - 55.4 °F 94% 29.67 in 5.0 mi Calm Calm - N/A   Overcast
4:15 PM 57.2 °F - 57.2 °F 100% 29.67 in 4.0 mi East 3.5 mph - N/A   Overcast
4:35 PM 55.4 °F - 55.4 °F 100% 29.67 in 4.0 mi East 3.5 mph - N/A   Overcast
4:55 PM 53.6 °F - 53.6 °F 100% 29.67 in 4.0 mi ENE 5.8 mph - N/A   Scattered Clouds
5:15 PM 51.8 °F - 51.8 °F 100% 29.68 in 4.0 mi East 6.9 mph - N/A   Scattered Clouds
5:35 PM 53.6 °F - 53.6 °F 100% 29.70 in 4.0 mi ESE 5.8 mph - N/A   Mostly Cloudy
5:55 PM 53.6 °F - 53.6 °F 100% 29.70 in 5.0 mi SSE 5.8 mph - N/A   Overcast
6:15 PM 55.4 °F - 55.4 °F 100% 29.71 in 5.0 mi SSE 5.8 mph - N/A   Overcast
6:35 PM 55.4 °F - 55.4 °F 100% 29.71 in 5.0 mi ESE 4.6 mph - N/A   Overcast
6:55 PM 55.4 °F - 55.4 °F 100% 29.71 in 3.0 mi East 6.9 mph - N/A   Overcast
7:15 PM 55.4 °F - 55.4 °F 100% 29.70 in 3.0 mi East 4.6 mph - N/A   Overcast
7:35 PM 55.4 °F - 55.4 °F 100% 29.70 in 3.0 mi East 6.9 mph - N/A   Overcast
7:55 PM 55.4 °F - 55.4 °F 100% 29.70 in 4.0 mi ESE 6.9 mph - N/A   Overcast
8:15 PM 55.4 °F - 55.4 °F 100% 29.71 in 3.0 mi ESE 6.9 mph - N/A   Overcast
8:35 PM 55.4 °F - 55.4 °F 100% 29.71 in 3.0 mi SE 6.9 mph - N/A   Overcast
8:55 PM 55.4 °F - 55.4 °F 100% 29.70 in 3.0 mi SE 8.1 mph - N/A   Overcast
9:15 PM 55.4 °F - 55.4 °F 100% 29.69 in 2.5 mi SE 9.2 mph - N/A   Overcast
9:35 PM 55.4 °F - 55.4 °F 100% 29.70 in 2.5 mi SE 6.9 mph - N/A   Overcast
9:55 PM 55.4 °F - 55.4 °F 100% 29.70 in 2.5 mi SE 8.1 mph - N/A   Overcast
10:15 PM 55.4 °F - 55.4 °F 100% 29.70 in 2.0 mi SE 6.9 mph - N/A   Overcast
10:35 PM 55.4 °F - 55.4 °F 100% 29.68 in 2.0 mi SE 9.2 mph - N/A   Overcast
10:55 PM 55.4 °F - 55.4 °F 100% 29.68 in 2.5 mi ESE 8.1 mph - N/A   Overcast
11:15 PM 55.4 °F - 55.4 °F 100% 29.67 in 2.5 mi SE 8.1 mph - N/A   Overcast
11:35 PM 55.4 °F - 55.4 °F 100% 29.67 in 3.0 mi ESE 8.1 mph - N/A   Overcast
11:55 PM 55.4 °F - 55.4 °F 100% 29.68 in 2.5 mi East 4.6 mph - N/A   Mostly Cloudy